STARLINK-11174 [DTC] (60409 NORAD) Tracking and Keplerian Element Data

This shows tracking and keplerian element data for the satellite.

Feedback or suggestion? Click here.




ElementValue
Catalog60409
NameSTARLINK-11174 [DTC]
Epoch Orbit1114
Epoch Day286.83435157
Epoch Year2024
RAAN94.4142
Inclination53.1579
Eccentricity8.96E-05
Argument of Perigee92.4317
Mean Anonmoly267.6803
Mean Motion15.69737446
Decay Rate2.453E-05
L11 60409U 24141M 24286.83435157 .00002453 00000+0 25068-4 0 9997
L22 60409 53.1579 94.4142 0000896 92.4317 267.6803 15.69737446 11145



Live tracking and technical data element details for STARLINK-11174 [DTC] (NORAD 60409). STARLINK-11174 [DTC] can be tracked NOW for your location showing map with azimuth and elevation plus other details from your city location.







IsCatalogInMostPopularTable: catalog: 60409, numindb: 6
Update: records affected: 1



GetName: 60409 STARLINK-11174 [DTC]

Hit Count: updated at: Wed, 04 Dec 2024 19:28:21 GMT